Baraboo, WI

9:45 PM CDT on June 23, 2017 (GMT -0500)
Baraboo Wisconsin Dells

Weather History for KDLL - November, 2011

Change the Weather History Date:

Tuesday, November 8, 2011

  Actual Average Record
Temperature  
Mean Temperature 38 °F -  
Max Temperature 42 °F 46 °F 77 °F (1999)
Min Temperature 35 °F 26 °F -9 °F (1991)
Degree Days  
Heating Degree Days 26    
Moisture  
Dew Point 35 °F    
Average Humidity 89    
Maximum Humidity 100    
Minimum Humidity 53    
Precipitation  
Precipitation 0.56 in - - ()
Sea Level Pressure  
Sea Level Pressure 30.11 in    
Wind  
Wind Speed 6 mph (NE)    
Max Wind Speed 13 mph    
Max Gust Speed 17 mph    
Visibility 8 miles    
Events Rain    
Averages and records for this station are not official NWS values.
T = Trace of Precipitation, MM = Missing Value Source: NWS Daily Summary

Daily Weather History Graph

Daily Weather History Graph

Search for Another Location

Airport or City:

Trip Planner

Search our weather history database for the weather conditions in past years. The results will help you decide how hot, cold, wet, or windy it might be!

Date:

Astronomy

Nov. 08, 2011 Rise Set
Actual Time 6:43 AM CST 4:41 PM CST
Civil Twilight 6:13 AM CST 5:11 PM CST
Nautical Twilight 5:38 AM CST 5:46 PM CST
Astronomical Twilight 5:05 AM CST 6:19 PM CST
Moon 3:22 PM CST (11/8) 4:40 AM CST (11/8)
Length of Visible Light 10h 58m
Length of Day
9h 58m
Waxing Gibbous, 96% of the Moon is Illuminated
Nov 8
Waxing Gibbous
Nov 10
Full
Nov 18
Last Quarter
Nov 25
New
Dec 2
First Quarter

Hourly Weather History & Observations

Time (CST) Temp. Windchill Dew Point Humidity Pressure Visibility Wind Dir Wind Speed Gust Speed Precip Events Conditions
12:15 AM 41.0 °F 39.0 °F 28.4 °F 61% 30.18 in 10.0 mi WNW 3.5 mph - N/A   Overcast
12:35 AM 41.0 °F - 30.2 °F 65% 30.17 in 10.0 mi Calm Calm - N/A   Overcast
12:55 AM 41.0 °F - 30.2 °F 65% 30.18 in 10.0 mi Calm Calm - N/A   Overcast
1:15 AM 42.8 °F - 26.6 °F 53% 30.20 in 10.0 mi Calm Calm - N/A   Light Drizzle
1:35 AM 41.0 °F 39.0 °F 32.0 °F 70% 30.20 in 7.0 mi ENE 3.5 mph - 0.01 in Rain Rain
1:55 AM 39.2 °F - 32.0 °F 75% 30.20 in 1.2 mi Calm Calm - 0.06 in Rain Heavy Rain
2:15 AM 37.4 °F - 33.8 °F 87% 30.20 in 1.8 mi Calm Calm - 0.07 in Rain Rain
2:35 AM 37.4 °F 34.9 °F 35.6 °F 93% 30.19 in 3.0 mi North 3.5 mph - 0.12 in Rain Rain
2:55 AM 35.6 °F 28.0 °F 33.8 °F 93% 30.17 in 2.5 mi East 10.4 mph - 0.17 in Rain Rain
3:15 AM 35.6 °F 29.2 °F 33.8 °F 93% 30.17 in 1.8 mi East 8.1 mph - 0.09 in Rain Rain
3:35 AM 35.6 °F 29.2 °F 33.8 °F 93% 30.16 in 2.0 mi East 8.1 mph - 0.13 in Rain Heavy Rain
4:15 AM 35.6 °F 28.6 °F 33.8 °F 93% 30.14 in 4.0 mi East 9.2 mph - 0.03 in Rain Rain
4:35 AM 35.6 °F 28.0 °F 33.8 °F 93% 30.14 in 5.0 mi East 10.4 mph - 0.05 in Rain Light Rain
4:55 AM 35.6 °F 28.0 °F 33.8 °F 93% 30.13 in 4.0 mi East 10.4 mph - 0.08 in Rain Rain
5:15 AM 35.6 °F 29.9 °F 33.8 °F 93% 30.13 in 5.0 mi ENE 6.9 mph - 0.02 in Rain Light Rain
5:35 AM 35.6 °F 30.7 °F 33.8 °F 93% 30.13 in 5.0 mi NE 5.8 mph - 0.03 in Rain Light Rain
5:55 AM 35.6 °F 29.9 °F 33.8 °F 93% 30.12 in 5.0 mi NE 6.9 mph - 0.04 in Rain Light Rain
6:15 AM 35.6 °F 29.9 °F 35.6 °F 100% 30.12 in 7.0 mi NE 6.9 mph - 0.01 in Rain Light Rain
6:35 AM 35.6 °F 29.9 °F 35.6 °F 100% 30.12 in 5.0 mi NE 6.9 mph - 0.01 in Rain Light Rain
6:55 AM 35.6 °F 30.7 °F 35.6 °F 100% 30.13 in 5.0 mi NE 5.8 mph - 0.02 in Rain Light Rain
7:15 AM 35.6 °F 30.7 °F 35.6 °F 100% 30.12 in 4.0 mi ENE 5.8 mph - 0.01 in Rain Light Rain
7:35 AM 35.6 °F 29.2 °F 35.6 °F 100% 30.12 in 5.0 mi ENE 8.1 mph - 0.03 in Rain Light Rain
8:15 AM 37.4 °F 31.4 °F 35.6 °F 93% 30.12 in 7.0 mi ENE 8.1 mph - 0.01 in Rain Light Rain
8:35 AM 37.4 °F 32.8 °F 35.6 °F 93% 30.13 in 10.0 mi NE 5.8 mph - 0.01 in   Drizzle
8:55 AM 37.4 °F 32.8 °F 35.6 °F 93% 30.12 in 10.0 mi ENE 5.8 mph - 0.02 in Rain Light Rain
9:15 AM 37.4 °F 32.1 °F 35.6 °F 93% 30.12 in 7.0 mi ENE 6.9 mph - N/A Rain Rain
9:35 AM 37.4 °F 31.4 °F 35.6 °F 93% 30.12 in 5.0 mi NE 8.1 mph - N/A   Light Drizzle
9:55 AM 37.4 °F 29.3 °F 35.6 °F 93% 30.11 in 7.0 mi ENE 12.7 mph - N/A   Light Drizzle
10:15 AM 37.4 °F 30.3 °F 35.6 °F 93% 30.10 in 10.0 mi NE 10.4 mph - N/A   Overcast
10:35 AM 37.4 °F 31.4 °F 35.6 °F 93% 30.11 in 10.0 mi NE 8.1 mph - N/A   Overcast
10:55 AM 37.4 °F 30.8 °F 35.6 °F 93% 30.09 in 10.0 mi NE 9.2 mph - N/A   Overcast
11:15 AM 37.4 °F 30.8 °F 35.6 °F 93% 30.09 in 10.0 mi NE 9.2 mph - N/A   Overcast
11:35 AM 39.2 °F 34.2 °F 37.4 °F 93% 30.10 in 10.0 mi NNE 6.9 mph - N/A   Overcast
11:55 AM 39.2 °F 33.6 °F 37.4 °F 93% 30.09 in 10.0 mi NNE 8.1 mph - N/A   Overcast
12:15 PM 39.2 °F 33.0 °F 37.4 °F 93% 30.08 in 10.0 mi North 9.2 mph - N/A   Light Drizzle
12:35 PM 39.2 °F 33.6 °F 37.4 °F 93% 30.07 in 10.0 mi NNE 8.1 mph - 0.01 in Rain Rain
12:55 PM 39.2 °F 33.6 °F 37.4 °F 93% 30.06 in 10.0 mi NNE 8.1 mph - 0.01 in   Light Drizzle
1:15 PM 39.2 °F 32.0 °F 37.4 °F 93% 30.05 in 10.0 mi NNE 11.5 mph - N/A   Overcast
1:35 PM 39.2 °F 33.6 °F 37.4 °F 93% 30.06 in 10.0 mi NNE 8.1 mph - N/A   Overcast
2:15 PM 41.0 °F 34.7 °F 37.4 °F 87% 30.04 in 10.0 mi NNE 10.4 mph - N/A   Overcast
2:35 PM 41.0 °F 36.4 °F 37.4 °F 87% 30.06 in 10.0 mi NNE 6.9 mph - N/A   Overcast
2:55 PM 41.0 °F 35.2 °F 37.4 °F 87% 30.06 in 10.0 mi NNE 9.2 mph - N/A   Overcast
3:15 PM 41.0 °F 35.8 °F 37.4 °F 87% 30.06 in 10.0 mi NNE 8.1 mph - N/A   Overcast
3:35 PM 41.0 °F 35.8 °F 37.4 °F 87% 30.07 in 10.0 mi NNE 8.1 mph 16.1 mph N/A   Overcast
3:55 PM 41.0 °F 35.8 °F 37.4 °F 87% 30.07 in 10.0 mi NNE 8.1 mph - N/A   Overcast
4:15 PM 41.0 °F 35.8 °F 37.4 °F 87% 30.07 in 10.0 mi NNE 8.1 mph - N/A   Overcast
4:35 PM 39.2 °F 33.6 °F 37.4 °F 93% 30.06 in 10.0 mi NNE 8.1 mph - N/A   Overcast
4:55 PM 39.2 °F 32.0 °F 37.4 °F 93% 30.05 in 10.0 mi NNE 11.5 mph 17.3 mph N/A   Overcast
5:15 PM 39.2 °F 33.6 °F 37.4 °F 93% 30.05 in 10.0 mi NE 8.1 mph - N/A   Overcast
5:35 PM 39.2 °F 33.6 °F 35.6 °F 87% 30.05 in 10.0 mi NNE 8.1 mph - N/A   Overcast
5:55 PM 39.2 °F 34.2 °F 35.6 °F 87% 30.06 in 10.0 mi NNE 6.9 mph - N/A   Overcast
6:15 PM 39.2 °F 34.2 °F 37.4 °F 93% 30.07 in 10.0 mi NNE 6.9 mph - N/A   Overcast
6:35 PM 39.2 °F 34.2 °F 35.6 °F 87% 30.07 in 10.0 mi NNE 6.9 mph 16.1 mph N/A   Overcast
6:55 PM 39.2 °F 33.0 °F 37.4 °F 93% 30.07 in 10.0 mi NNE 9.2 mph - N/A   Overcast
7:15 PM 39.2 °F 33.6 °F 37.4 °F 93% 30.07 in 10.0 mi NE 8.1 mph - N/A   Overcast
7:35 PM 39.2 °F 33.6 °F 37.4 °F 93% 30.06 in 7.0 mi NNE 8.1 mph - N/A   Overcast
7:55 PM 39.2 °F 32.0 °F 37.4 °F 93% 30.06 in 5.0 mi NE 11.5 mph - N/A   Light Drizzle
8:15 PM 39.2 °F 32.0 °F 37.4 °F 93% 30.06 in 5.0 mi NE 11.5 mph 16.1 mph N/A Rain Rain
8:35 PM 39.2 °F 32.5 °F 37.4 °F 93% 30.06 in 4.0 mi NE 10.4 mph - N/A Rain Light Rain
8:55 PM 39.2 °F 33.6 °F 37.4 °F 93% 30.06 in 3.0 mi NE 8.1 mph - 0.01 in Rain Rain
9:15 PM 39.2 °F 34.2 °F 37.4 °F 93% 30.06 in 4.0 mi NE 6.9 mph - 0.03 in Rain Light Rain
9:35 PM 39.2 °F 33.6 °F 37.4 °F 93% 30.05 in 4.0 mi NNE 8.1 mph - 0.05 in Rain Light Rain
9:55 PM 39.2 °F 34.2 °F 37.4 °F 93% 30.05 in 3.0 mi NNE 6.9 mph - 0.08 in Rain Rain
10:15 PM 39.2 °F 33.6 °F 37.4 °F 93% 30.03 in 3.0 mi NNE 8.1 mph - 0.04 in Rain Rain
10:35 PM 39.2 °F 33.6 °F 37.4 °F 93% 30.02 in 4.0 mi NNE 8.1 mph - 0.06 in Rain Rain
10:55 PM 39.2 °F 33.0 °F 37.4 °F 93% 30.02 in 7.0 mi NNE 9.2 mph - 0.08 in Rain Light Rain
11:15 PM 37.4 °F 30.3 °F 37.4 °F 100% 30.01 in 7.0 mi NNE 10.4 mph 17.3 mph N/A Rain Light Rain
11:35 PM 37.4 °F 29.3 °F 37.4 °F 100% 30.00 in 7.0 mi NNE 12.7 mph 17.3 mph 0.01 in Rain Light Rain
11:55 PM 37.4 °F 30.8 °F 35.6 °F 93% 29.99 in 10.0 mi NNE 9.2 mph 17.3 mph 0.01 in Rain Light Rain